Date,TemperatureHighF,TemperatureAvgF,TemperatureLowF,DewpointHighF,DewpointAvgF,DewpointLowF,HumidityHigh,HumidityAvg,HumidityLow,PressureMaxIn,PressureMinIn,WindSpeedMaxMPH,WindSpeedAvgMPH,GustSpeedMaxMPH,PrecipitationSumIn
2013-1-1,48.7,42.9,37.4,46.5,38.2,34.6,95,84,66,30.05,29.50,4,0,10,0.15
2013-1-2,51.8,46.4,37.6,50.2,43.9,34.9,96,91,82,30.33,30.05,6,0,7,0.01
2013-1-3,54.3,51.6,49.6,50.2,49.1,47.4,97,91,85,30.62,30.33,3,0,7,0.00
2013-1-4,51.4,49.8,46.9,47.4,45.4,43.2,93,85,77,30.65,30.60,4,0,9,0.00
2013-1-5,52.2,48.8,45.3,49.6,46.7,44.2,99,92,84,30.60,30.51,4,0,8,0.00
2013-1-6,47.8,45.3,43.5,46.3,44.4,43.2,99,97,91,30.52,30.39,2,0,4,0.00
2013-1-7,48.7,46.6,44.6,45.8,44.7,43.6,98,93,88,30.39,30.25,3,0,8,0.00
2013-1-8,54.1,50.2,47.1,48.1,46.5,44.5,97,87,77,30.27,30.18,2,0,7,0.02
2013-1-9,50.5,43.6,32.4,49.0,41.7,31.9,99,93,70,30.18,30.07,2,0,6,0.09
2013-1-10,39.9,36.2,30.9,37.3,34.9,30.7,99,95,88,30.07,29.92,3,0,6,0.01
2013-1-11,45.5,36.6,31.3,40.0,34.8,30.8,99,94,76,30.08,29.96,1,0,3,0.00
2013-1-12,41.4,38.6,34.2,37.9,33.8,27.5,99,84,58,29.97,29.83,4,1,12,0.04
2013-1-13,39.6,36.4,32.2,35.7,29.5,27.3,89,76,67,30.14,29.94,6,0,12,0.00
2013-1-14,37.9,34.3,31.5,36.0,32.0,27.6,98,91,83,30.10,29.63,4,0,10,0.15
2013-1-15,37.6,33.6,25.7,32.7,30.4,24.7,96,88,78,29.87,29.62,4,0,14,0.00
2013-1-16,35.8,29.0,23.5,30.2,27.4,22.8,99,94,78,30.02,29.83,3,0,4,0.00
2013-1-17,43.2,31.4,22.5,33.6,27.2,22.0,99,85,59,30.07,29.87,2,0,4,0.01
2013-1-18,34.9,31.0,28.4,29.6,27.7,25.6,95,87,73,29.87,29.41,4,1,11,0.00
2013-1-19,34.0,32.3,30.4,31.5,29.0,25.9,96,88,78,29.47,29.38,5,0,14,0.00
2013-1-20,32.9,31.3,29.8,31.1,28.7,26.3,97,90,80,29.45,29.27,5,0,11,0.00
2013-1-21,39.2,31.3,24.8,31.2,28.8,23.8,97,91,69,29.49,29.25,0,0,0,0.00
2013-1-22,37.2,31.1,22.6,34.5,29.1,22.2,99,92,80,29.67,29.49,6,0,13,0.19
2013-1-23,37.8,35.8,35.1,32.8,31.1,29.9,87,83,76,29.80,29.67,0,0,6,0.05
2013-1-24,36.3,34.5,32.9,32.2,29.5,26.4,95,82,67,30.14,29.80,0,0,1,0.00
2013-1-25,37.6,34.6,32.2,35.3,29.6,26.7,93,82,73,30.12,29.56,4,0,12,0.02
2013-1-26,48.7,42.1,35.6,43.6,38.6,34.2,99,88,69,29.83,29.54,8,1,17,0.11
2013-1-27,51.3,46.6,40.1,49.3,40.6,33.2,97,81,52,29.62,29.27,7,1,18,0.30
2013-1-28,52.0,44.3,36.7,49.6,40.2,33.8,98,86,75,29.82,29.52,0,0,0,0.25
2013-1-29,56.7,53.7,48.9,53.6,50.9,45.7,97,90,79,29.65,29.55,0,0,0,0.04
2013-1-30,54.9,50.4,44.8,52.9,43.1,35.9,97,77,51,30.05,29.51,0,0,0,0.18
2013-1-31,52.7,48.7,45.0,46.5,40.6,37.0,93,74,58,30.05,29.80,0,0,0,0.06
2013-2-1,47.3,42.5,37.6,42.5,39.3,36.0,96,88,75,29.85,29.45,0,0,0,0.27
2013-2-2,44.1,38.6,29.5,38.0,31.1,25.1,96,75,59,30.24,29.59,0,0,0,0.01
2013-2-3,49.5,41.2,29.7,46.5,36.8,25.0,91,84,76,30.25,29.91,0,0,0,0.00
2013-2-4,52.9,48.5,43.2,47.0,39.9,33.2,90,73,52,29.95,29.72,0,0,0,0.00
2013-2-5,44.8,40.7,35.8,38.8,32.3,25.5,95,73,48,29.72,29.33,0,0,0,0.11
2013-2-6,42.8,40.0,35.6,39.0,35.0,27.1,94,82,67,29.95,29.35,0,0,0,0.06
2013-2-7,43.3,37.3,32.5,36.1,30.4,25.9,96,77,61,30.00,29.87,0,0,0,0.05
2013-2-8,46.4,37.8,31.6,36.2,32.9,30.5,97,83,55,30.03,29.91,0,0,0,0.00
2013-2-9,40.5,37.3,34.2,36.8,34.6,30.7,95,90,79,30.04,29.74,0,0,0,0.01
2013-2-10,41.9,38.5,34.0,40.4,37.4,33.2,99,96,91,29.74,29.14,0,0,0,0.32
2013-2-11,35.8,34.5,33.1,34.4,33.4,32.7,99,96,91,29.65,29.16,0,0,0,0.11
2013-2-12,36.1,35.1,34.3,33.8,30.5,28.1,95,83,75,29.86,29.65,0,0,0,0.00
2013-2-13,40.3,37.1,34.5,38.7,34.5,30.5,95,90,85,29.92,29.79,0,0,0,0.01
2013-2-14,53.4,46.7,40.1,48.5,41.9,37.1,99,84,63,29.80,29.54,0,0,0,0.05
2013-2-15,52.3,42.1,34.7,40.1,36.1,33.4,98,80,51,30.02,29.80,0,0,0,0.00
2013-2-16,54.3,44.0,34.7,39.4,36.0,31.4,96,75,42,30.06,30.01,0,0,0,0.00
2013-2-17,37.2,35.8,32.7,36.1,34.7,31.7,97,96,94,30.02,29.91,0,0,0,0.00
2013-2-18,52.2,39.3,31.1,37.7,34.0,29.8,99,83,51,29.95,29.89,0,0,0,0.00
2013-2-19,56.1,37.1,25.5,39.4,31.7,25.3,99,83,47,29.93,29.84,0,0,0,0.00
2013-2-20,43.9,38.1,34.5,39.1,32.3,26.6,99,80,59,30.05,29.90,0,0,0,0.02
2013-2-21,36.9,34.5,32.0,27.0,22.8,20.3,71,62,54,30.06,29.95,0,0,0,0.00
2013-2-22,36.5,34.0,32.9,25.7,22.9,19.9,72,64,57,29.95,29.88,0,0,0,0.00
2013-2-23,36.3,34.2,32.5,28.2,24.8,21.5,79,68,55,30.00,29.88,0,0,0,0.00
2013-2-24,36.9,34.7,33.3,29.0,27.3,25.8,83,74,67,30.07,29.98,0,0,0,0.00
2013-2-25,40.3,38.0,34.7,36.0,33.5,27.9,90,84,75,30.17,30.05,7,1,13,0.00
2013-2-26,41.4,39.3,36.9,39.1,37.6,34.9,98,93,87,30.35,30.16,6,2,14,0.01
2013-2-27,45.3,39.2,36.1,37.7,34.3,32.6,95,83,64,30.36,30.27,8,3,14,0.00
2013-2-28,46.9,39.9,34.7,37.7,34.5,32.1,91,81,67,30.28,30.13,7,2,12,0.00
2013-3-1,45.0,40.5,36.7,41.1,34.7,30.1,99,81,62,30.20,30.14,7,2,14,0.01
2013-3-2,47.7,37.7,27.5,32.5,29.9,25.9,94,74,55,30.20,30.07,4,1,11,0.00
2013-3-3,48.7,37.0,24.8,36.5,32.3,24.0,98,84,61,30.09,29.90,5,1,11,0.00
2013-3-4,45.9,35.6,30.7,36.0,33.2,29.2,98,91,67,29.92,29.73,5,1,11,0.00
2013-3-5,65.7,45.6,29.3,44.5,37.5,28.8,99,76,44,29.87,29.71,3,0,7,0.00
2013-3-6,58.5,50.3,44.6,45.1,42.3,38.9,88,75,60,29.71,29.63,4,1,7,0.00
2013-3-7,50.4,47.7,44.8,49.5,46.8,43.3,99,97,89,29.65,29.50,3,1,7,0.17
2013-3-8,50.7,49.0,47.5,50.4,48.8,47.2,99,99,99,29.68,29.50,4,0,8,0.35
2013-3-9,47.5,44.1,38.5,47.2,42.1,34.3,99,93,82,29.80,29.66,3,0,7,0.04
2013-3-10,39.9,37.0,34.2,35.1,31.6,27.6,87,81,75,29.87,29.78,8,3,17,0.00
2013-3-11,34.2,31.7,29.7,28.3,24.4,20.2,86,74,64,29.94,29.83,10,6,23,0.00
2013-3-12,42.1,34.7,28.9,32.3,22.5,15.7,85,62,40,30.03,29.91,11,5,27,0.00
2013-3-13,48.2,37.8,29.7,31.9,29.0,24.6,92,72,41,30.16,29.99,4,1,9,0.00
2013-3-14,50.0,35.9,25.5,33.0,26.2,21.8,99,72,38,30.23,30.13,4,0,8,0.00
2013-3-15,49.1,43.4,37.2,43.0,38.2,26.9,93,82,66,30.12,29.77,8,2,18,0.06
2013-3-16,48.4,44.0,41.9,43.8,40.9,38.2,94,89,81,29.76,29.48,8,3,17,0.40
2013-3-17,45.7,40.5,32.4,41.9,38.3,31.9,98,92,84,29.53,29.36,4,1,9,0.14
2013-3-18,48.0,37.7,28.9,44.3,36.5,28.7,99,96,80,29.56,29.41,2,0,4,0.30
2013-3-19,51.8,41.8,36.1,39.5,37.5,33.8,99,85,60,29.98,29.56,4,0,8,0.01
2013-3-20,52.0,41.8,37.4,39.8,36.3,33.6,93,81,60,30.32,29.92,4,1,8,0.00
2013-3-21,46.9,39.8,32.5,35.2,33.1,30.7,95,78,60,30.34,30.23,6,2,12,0.00
2013-3-22,44.1,39.1,36.1,36.2,34.7,32.4,93,85,72,30.23,30.03,9,4,18,0.11
2013-3-23,82.8,35.2,33.4,80.8,34.0,32.4,99,95,88,30.17,30.05,98,4,98,0.21
2013-3-24,35.1,33.3,31.8,33.8,28.0,23.0,97,82,61,30.25,30.16,30,4,30,0.00
2013-3-25,35.2,34.4,33.4,25.8,24.5,23.0,72,67,61,30.27,30.22,8,4,19,0.00
2013-3-26,35.8,34.7,33.4,26.1,24.3,22.9,71,65,60,30.25,30.19,8,4,17,0.00
2013-3-27,43.0,35.9,31.6,27.0,25.0,22.0,80,65,47,30.20,30.15,8,2,14,0.00
2013-3-28,42.1,36.3,27.5,30.7,25.9,20.4,93,67,47,30.26,30.15,7,2,12,0.00
2013-3-29,46.0,38.6,33.6,28.4,25.4,22.8,76,60,47,29.92,29.86,6,2,12,0.00
2013-3-30,44.8,37.3,32.4,31.8,28.5,24.4,87,71,51,30.06,29.85,7,2,14,0.00
2013-3-31,43.3,35.1,23.2,32.2,25.7,21.8,98,70,46,30.06,29.98,6,1,12,0.00
2013-4-1,45.7,37.7,32.7,30.1,26.5,21.0,82,65,41,29.98,29.91,9,3,18,0.00
2013-4-2,48.6,39.5,31.8,30.8,24.0,14.8,86,57,26,30.14,29.96,10,3,18,0.00
2013-4-3,39.7,36.7,30.9,31.1,25.9,22.9,92,66,53,30.14,30.07,8,3,18,0.00
2013-4-4,38.5,36.2,33.4,33.2,28.8,23.3,93,75,58,30.07,29.97,8,4,18,0.01
2013-4-5,46.4,39.9,32.9,32.1,27.5,20.7,82,63,38,30.20,29.96,8,4,28,0.01
2013-4-6,59.0,41.7,26.6,33.4,28.9,5.6,94,65,27,30.37,30.19,7,1,14,0.00
2013-4-7,55.0,41.5,15.4,33.2,26.3,-4.0,94,59,25,30.37,29.96,24,1,7,12.09
2013-4-8,52.9,43.8,38.7,36.4,32.5,28.1,84,66,41,29.96,29.63,7,2,14,0.00
2013-4-9,49.6,42.8,38.1,46.5,39.8,35.7,96,89,67,29.63,29.46,14,2,10,0.04
2013-4-10,52.5,44.9,37.0,43.4,40.0,34.9,98,84,63,29.92,29.53,5,1,11,0.12
2013-4-11,62.1,48.1,43.2,46.1,44.2,42.2,99,88,53,29.97,29.83,5,1,13,0.08
2013-4-12,55.4,48.7,44.2,49.1,45.8,42.3,98,90,73,30.23,29.78,4,1,8,0.44
2013-4-13,54.3,48.5,-32.6,51.7,45.3,-33.5,98,89,70,30.39,30.23,6,2,17,0.11
2013-4-14,70.9,59.4,52.3,52.7,49.8,45.6,98,72,46,30.45,30.37,8,2,18,0.01
2013-4-15,62.4,55.8,49.3,49.5,47.5,44.3,86,74,58,30.55,30.43,4,1,11,0.00
2013-4-16,65.7,55.5,48.9,49.2,45.6,42.3,93,71,43,30.58,30.39,5,2,12,0.00
2013-4-17,70.0,57.2,47.7,53.0,50.0,45.2,98,79,51,30.58,30.27,6,2,12,0.00
2013-4-18,61.0,52.0,45.9,47.4,41.1,33.8,91,67,49,30.58,30.29,8,3,14,0.24
2013-4-19,60.6,50.1,41.2,43.1,39.3,32.2,89,68,35,30.99,30.58,4,1,11,0.00
2013-4-20,60.8,46.5,32.0,41.5,32.6,25.2,99,64,26,31.03,30.85,5,1,12,0.00
2013-4-21,66.7,47.4,29.5,40.7,34.5,28.0,98,65,30,30.85,30.51,4,0,8,0.00
2013-4-22,64.6,52.0,43.9,47.7,43.5,39.5,95,75,42,30.51,30.44,4,1,11,0.00
2013-4-23,77.0,60.7,50.0,50.4,47.9,44.8,95,66,35,30.70,30.46,4,1,8,0.00
2013-4-24,71.8,59.2,47.5,54.8,50.6,45.2,94,74,51,30.75,30.67,4,1,8,0.01
2013-4-25,78.3,61.5,50.0,56.3,51.1,47.5,99,73,36,30.74,30.49,4,1,9,0.00
2013-4-26,61.9,50.1,42.6,48.8,38.7,26.0,96,68,37,30.52,30.38,4,1,13,0.13
2013-4-27,55.9,44.0,36.0,43.6,36.3,32.1,95,76,44,30.58,30.37,7,1,14,0.05
2013-4-28,56.8,45.7,30.9,41.2,34.2,29.9,99,68,41,30.59,30.38,4,1,10,0.01
2013-4-29,63.9,51.9,44.6,43.6,36.9,31.4,88,59,32,30.66,30.37,6,2,12,0.00
2013-4-30,62.4,49.3,36.3,40.3,35.9,30.3,94,63,31,30.79,30.66,6,2,18,0.00
2013-5-1,56.7,44.4,36.3,40.9,37.0,31.7,91,77,45,30.79,29.82,4,1,26,0.00
2013-5-2,70.5,53.1,36.5,36.0,27.8,10.7,80,44,15,29.86,29.80,6,1,12,0.00
2013-5-3,73.9,54.8,36.0,43.7,37.8,30.7,88,57,22,29.83,29.68,12,1,99,0.76
2013-5-4,93.9,56.1,46.4,87.9,41.9,30.7,84,62,32,29.78,29.62,5,1,53,0.04
2013-5-5,102.0,58.4,32.4,93.4,46.4,25.0,91,66,22,29.84,29.78,25,1,25,0.38
2013-5-6,79.3,61.4,51.4,51.7,47.6,24.8,86,64,20,29.82,29.69,27,0,5,0.05
2013-5-7,93.0,59.9,43.0,91.0,45.0,38.0,95,62,31,29.73,29.51,189,2,98,0.02
2013-5-8,73.0,58.5,50.9,63.1,49.9,44.6,97,74,54,29.50,29.34,4,1,9,0.01
2013-5-9,60.8,52.0,44.4,48.6,43.6,39.4,92,75,50,29.49,29.33,6,2,14,0.06
2013-5-10,68.2,55.6,-1.3,49.2,46.4,-11.8,87,73,41,29.58,29.33,5,2,11,0.00
2013-5-11,57.9,49.2,44.1,51.9,45.6,42.8,97,88,65,29.57,29.44,25,1,25,0.19
2013-5-14,50.2,48.5,46.2,48.9,46.9,41.7,98,95,84,29.92,29.78,4,2,11,0.08
2013-5-15,66.0,49.6,43.0,44.9,40.6,37.7,90,72,43,30.11,29.71,5,2,16,0.00
2013-5-16,70.0,52.3,37.6,45.1,39.3,34.8,99,66,33,30.12,30.03,2,0,7,0.00
2013-5-17,55.8,49.3,39.2,45.8,42.5,38.1,98,78,62,30.37,30.12,4,1,9,0.00
2013-5-18,68.4,54.5,46.2,46.4,44.2,41.8,87,70,43,30.36,30.27,4,0,8,0.00
2013-5-19,73.2,58.1,46.0,50.0,47.1,43.5,94,69,41,30.45,30.33,4,1,10,0.00
2013-5-20,63.3,58.0,52.0,57.9,53.8,48.4,93,86,79,30.46,30.39,2,0,7,0.00
2013-5-21,64.9,57.6,53.1,56.9,51.3,47.1,87,80,57,30.63,30.46,4,1,12,0.00
2013-5-22,63.5,53.9,47.5,48.5,44.9,35.5,90,73,44,30.66,30.58,4,1,8,0.00
2013-5-23,60.1,48.9,42.6,41.9,36.5,31.6,78,63,38,30.57,30.44,4,1,11,0.00
2013-5-24,114.8,45.6,41.9,99.9,41.5,36.7,93,86,78,30.55,30.18,28,2,100,0.25
2013-5-25,71.6,55.6,9.5,50.9,38.9,-0.9,96,56,30,30.72,30.57,27,1,101,0.00
2013-5-26,75.0,57.2,39.7,42.1,39.2,35.8,94,56,25,30.69,30.52,4,1,11,0.00
2013-5-27,69.4,56.4,43.9,45.2,40.1,35.8,84,57,31,30.52,30.18,4,1,13,0.00
2013-5-28,57.7,51.6,48.7,55.0,48.6,41.5,99,90,66,30.18,30.03,1,0,4,0.50
2013-5-29,57.7,51.9,46.4,53.8,49.1,45.8,98,90,72,30.32,30.12,2,0,100,0.05
2013-5-30,63.0,55.2,52.2,54.8,51.9,49.6,99,89,71,30.55,30.30,5,1,10,0.24
2013-5-31,77.7,61.8,52.2,57.1,52.1,48.9,91,73,45,30.68,30.55,3,0,9,0.00
2013-6-1,59.0,58.6,57.6,50.2,49.8,49.6,76,73,71,30.69,30.68,2,1,5,0.00
2013-6-2,69.3,59.0,51.3,46.9,44.6,41.6,79,61,38,29.95,29.92,3,1,6,12.25
2013-6-3,71.1,57.2,42.4,51.1,43.5,40.1,98,64,35,29.99,29.91,5,1,11,0.00
2013-6-4,73.6,60.3,46.2,47.8,42.6,38.6,78,54,34,29.93,29.71,8,2,14,0.00
2013-6-5,75.0,60.0,48.2,50.0,46.4,41.4,88,64,34,29.73,29.59,6,2,10,0.02
2013-6-6,75.6,60.9,48.4,53.2,47.9,45.0,89,65,43,29.70,29.63,6,2,14,0.00
2013-6-7,72.1,59.8,50.0,56.3,49.2,44.5,90,69,48,29.73,29.66,5,2,12,0.05
2013-6-8,68.5,57.0,48.4,48.2,46.0,44.3,87,68,46,29.72,29.57,7,3,15,0.00
2013-6-9,60.6,55.2,51.1,48.0,45.7,43.0,82,71,61,29.58,29.47,7,3,12,0.00
2013-6-10,63.9,55.7,49.8,48.2,44.7,41.9,82,67,54,29.51,29.45,3,0,7,0.00
2013-6-11,64.9,57.8,46.9,60.9,53.2,43.6,91,85,76,29.48,29.40,3,1,9,0.00
2013-6-12,64.8,60.5,57.6,61.1,57.1,53.1,96,89,71,29.41,29.31,50,2,50,0.06
2013-6-13,67.8,58.7,52.9,56.3,51.3,45.5,93,77,56,29.55,29.29,6,2,15,0.01
2013-6-14,70.7,59.6,48.7,52.1,47.9,38.1,88,68,32,29.57,29.31,4,1,12,0.00
2013-6-15,66.7,58.5,51.8,54.4,50.2,44.6,97,75,48,29.39,29.20,5,2,14,0.20
2013-6-16,72.3,59.8,52.5,51.7,49.0,46.1,88,69,45,29.47,29.39,2,1,8,0.00
2013-6-17,72.7,62.8,54.5,53.2,50.1,47.1,88,65,45,29.48,29.41,7,2,14,0.00
2013-6-18,60.8,58.3,56.1,55.0,53.0,51.5,89,82,72,29.45,29.40,5,2,8,0.00
2013-6-19,86.7,70.7,59.5,64.1,60.4,58.0,96,73,42,29.95,29.88,6,1,11,12.58
2013-6-20,74.7,65.7,59.5,67.9,59.9,13.0,92,82,12,29.93,29.77,24,1,24,0.00
2013-6-21,76.1,63.8,57.6,67.3,57.7,54.3,94,81,56,29.85,29.74,4,1,9,0.00
2013-6-22,67.5,59.2,53.1,58.5,52.8,19.0,98,80,22,29.84,29.63,7,3,56,0.08
2013-6-23,66.0,59.4,54.1,54.4,51.8,49.7,93,77,61,30.00,29.63,4,2,11,0.00
2013-6-24,67.3,56.7,51.1,50.2,46.1,38.7,87,69,39,30.20,30.00,4,1,51,0.00
2013-6-27,74.3,63.8,54.3,54.2,50.9,47.1,95,65,39,29.91,29.75,3,1,7,0.04
2013-6-28,71.6,61.6,54.1,63.9,58.4,52.7,99,90,72,29.75,29.61,4,0,9,0.08
2013-6-29,78.6,66.4,56.7,58.5,50.1,45.4,87,59,33,29.82,29.64,4,1,8,0.00
2013-6-30,84.4,71.3,58.5,61.2,57.2,52.1,95,64,39,29.81,29.62,4,1,11,0.00
2013-7-1,73.8,64.3,56.5,54.6,50.5,46.3,86,63,40,29.65,29.55,3,1,8,0.00
2013-7-2,64.6,58.9,52.9,54.2,50.5,47.7,85,74,58,29.57,29.30,3,1,10,0.00
2013-7-3,73.8,65.9,58.1,59.8,56.7,53.8,91,73,53,30.25,29.92,4,1,8,0.09
2013-7-4,81.9,66.1,54.1,63.7,57.9,51.4,94,76,51,30.50,30.25,5,1,9,0.00
2013-7-5,85.8,68.2,52.5,59.7,54.0,50.7,95,65,30,30.65,30.50,3,1,8,0.00
2013-7-6,90.0,72.4,53.2,61.2,55.6,50.7,93,60,28,30.66,30.56,3,0,8,0.00
2013-7-7,90.0,71.3,-6.7,63.1,58.2,-17.9,98,68,15,30.74,30.65,13,1,100,0.43
2013-7-8,112.6,72.9,59.5,97.0,56.0,51.2,92,58,34,30.76,30.64,27,3,55,0.00
2013-7-9,85.8,68.4,56.3,56.6,46.6,32.4,80,52,16,30.68,30.48,8,2,97,0.00
2013-7-10,81.1,67.5,53.4,58.5,52.8,46.9,87,61,40,30.52,30.45,6,2,14,0.00
2013-7-11,79.3,65.5,52.3,52.1,48.0,44.7,90,56,31,30.54,30.44,6,2,98,1.51
2013-7-12,83.1,65.3,35.4,57.7,52.8,13.0,86,67,36,30.53,30.44,4,1,8,0.05
2013-7-13,94.8,75.3,58.6,65.2,60.0,56.0,93,63,31,30.49,30.42,4,1,8,0.00
2013-7-14,91.0,76.3,61.9,65.6,58.1,50.9,90,58,28,30.48,30.40,4,1,9,0.00
2013-7-15,91.4,73.2,61.3,58.9,53.2,34.7,82,55,14,30.47,29.93,2,0,4,0.00
2013-7-16,93.6,76.9,62.1,61.0,57.2,51.0,82,55,24,29.98,29.91,3,0,7,0.00
2013-7-17,94.3,77.7,62.2,60.3,56.4,52.1,79,51,25,30.02,29.94,4,0,6,0.38
2013-7-18,89.2,75.0,63.7,60.2,57.0,52.2,81,57,29,30.07,30.00,6,2,11,0.00
2013-7-19,85.6,75.2,61.5,61.3,55.5,50.5,75,52,33,30.06,29.95,7,3,13,0.38
2013-7-20,79.3,68.1,61.9,61.2,59.3,55.8,91,74,51,30.00,29.90,5,2,11,0.00
2013-7-21,83.8,69.9,62.8,62.4,58.9,54.3,88,70,44,29.92,29.77,4,2,10,0.00
2013-7-22,95.9,78.1,63.7,66.3,61.1,54.4,96,62,27,29.81,29.69,4,1,8,0.00
2013-7-23,87.6,74.2,64.6,70.0,64.6,58.4,95,74,45,29.71,29.64,4,0,8,0.06
2013-7-24,87.3,70.4,59.0,61.8,58.6,55.0,92,69,35,29.73,29.67,5,1,8,0.00
2013-7-25,82.8,70.3,61.9,66.8,61.5,56.6,99,76,43,29.70,29.62,5,1,50,0.15
2013-7-26,86.9,71.7,55.0,60.7,55.4,50.0,99,60,33,29.68,29.59,2,0,6,0.00
2013-7-27,89.1,69.3,56.5,67.7,57.1,49.3,99,70,27,29.61,29.33,3,0,8,0.27
2013-7-28,77.2,67.5,58.1,62.5,59.1,56.6,99,76,51,29.55,29.34,4,1,11,0.32
2013-7-29,77.0,67.8,60.4,62.1,59.3,54.0,99,77,46,29.73,29.53,6,2,15,0.02
2013-7-30,75.7,64.0,59.7,65.5,61.1,58.0,99,91,69,29.74,29.61,3,1,7,0.11
2013-7-31,77.5,67.8,61.3,65.8,62.1,58.7,92,82,64,29.76,29.70,4,1,10,0.00
2013-8-1,95.7,81.3,60.4,69.0,63.4,56.7,99,59,28,29.70,29.43,6,1,15,0.00
2013-8-2,82.4,69.8,63.5,65.4,60.3,55.5,96,73,48,29.59,29.49,4,1,11,0.05
2013-8-3,78.8,67.5,59.0,61.1,56.7,51.7,99,72,43,29.85,29.57,4,2,11,0.12
2013-8-4,78.3,66.7,56.3,59.7,56.3,52.4,99,72,42,29.87,29.78,5,1,13,0.00
2013-8-5,77.7,66.1,60.4,64.2,59.6,54.4,99,81,53,29.79,29.51,5,1,11,0.30
2013-8-6,79.9,64.9,52.3,60.2,53.2,43.9,99,71,29,29.80,29.67,2,0,4,0.01
2013-8-7,81.1,65.7,54.7,58.3,50.9,45.2,98,63,31,29.80,29.66,5,1,10,0.00
2013-8-8,83.1,66.3,49.8,58.5,51.9,43.5,99,64,25,29.88,29.79,3,0,9,0.00
2013-8-9,80.2,67.5,60.6,63.7,55.2,46.0,98,68,33,29.95,29.78,6,1,10,0.04
2013-8-10,75.9,65.2,55.0,53.3,48.3,42.5,79,57,31,29.97,29.89,2,0,7,0.00
2013-8-11,79.7,67.5,59.4,58.9,51.8,43.8,83,60,29,29.89,29.75,4,1,9,0.00
2013-8-12,73.9,63.3,55.2,54.3,48.0,39.1,87,60,30,29.85,29.75,4,1,11,0.00
2013-8-13,72.0,60.0,50.2,56.6,50.0,43.7,95,72,39,29.97,29.85,4,0,10,0.01
2013-8-14,77.5,63.2,50.7,62.0,55.8,50.4,99,80,44,29.98,29.90,4,0,10,0.09
2013-8-15,76.6,64.6,61.3,63.5,61.2,58.3,99,90,59,29.93,29.85,3,1,8,0.01
2013-8-16,77.9,66.3,62.1,64.2,61.7,59.2,96,86,62,29.91,29.83,4,1,9,0.02
2013-8-17,69.8,63.0,56.5,62.2,58.1,55.9,99,85,64,29.88,29.64,5,2,11,0.02
2013-8-18,81.1,67.2,60.1,63.6,58.8,51.8,99,77,38,29.80,29.62,4,1,10,0.01
2013-8-19,79.9,64.4,52.2,55.0,50.9,44.7,93,65,31,30.07,29.80,4,0,8,0.00
2013-8-20,83.3,71.7,59.2,55.8,49.8,42.7,83,50,24,29.93,29.84,4,0,8,0.00
2013-8-21,86.0,68.4,53.4,59.2,53.0,46.6,95,63,26,29.87,29.70,3,0,8,0.00
2013-8-22,78.4,66.2,61.0,69.3,63.4,58.1,99,91,63,29.72,29.61,3,0,4,0.43
2013-8-23,84.9,70.5,57.7,64.2,60.2,51.9,99,74,39,29.62,29.41,4,1,12,0.00
2013-8-24,67.6,63.2,57.4,65.4,62.1,57.0,99,96,84,29.44,29.37,2,0,7,0.52
2013-8-25,76.8,63.3,54.9,65.7,58.7,54.4,99,87,55,29.60,29.39,6,1,11,0.20
2013-8-26,82.8,71.9,-11.4,63.6,53.6,-32.3,99,56,30,29.65,29.58,18,2,18,0.94
2013-8-27,81.3,63.3,49.8,59.9,52.7,46.1,99,74,30,29.65,29.59,2,0,5,0.00
2013-9-6,70.2,60.4,53.6,60.6,55.2,50.0,98,84,53,30.01,29.89,3,0,6,15.80
2013-9-7,70.0,58.2,50.5,55.1,49.8,45.0,97,76,42,30.21,29.99,5,1,11,0.02
2013-9-8,63.7,54.2,46.2,57.1,49.2,45.3,99,85,52,30.24,30.20,4,0,11,0.08
2013-9-9,57.6,52.5,47.3,57.0,51.7,46.7,99,97,93,30.23,30.12,4,0,8,0.25
2013-9-10,95.5,58.9,48.9,95.2,50.4,46.4,99,75,52,30.32,30.22,4,1,9,0.01
2013-9-11,60.1,55.6,53.2,55.6,51.2,47.7,99,86,70,30.34,30.27,2,0,5,0.09
2013-9-12,73.4,58.1,0.0,60.2,55.6,-4.5,99,92,59,30.27,30.24,3,0,49,0.04
2013-9-13,69.4,63.3,55.8,66.4,62.6,55.5,99,98,85,30.22,30.02,2,0,6,0.78
2013-9-14,61.5,52.5,45.9,61.2,51.6,29.1,99,97,34,30.24,30.02,3,0,8,0.14
2013-9-15,60.6,53.4,44.4,60.2,51.2,44.2,99,93,58,30.23,29.71,5,1,12,0.18
2013-9-16,64.0,53.0,46.2,55.3,42.7,34.6,99,71,38,29.81,29.73,5,1,14,0.01
2013-9-17,59.5,53.0,46.2,59.3,49.6,42.4,99,89,66,29.82,29.50,3,0,8,0.20
2013-9-25,79.0,67.8,57.9,63.0,60.7,54.8,99,80,53,29.96,29.88,2,0,5,0.04
2013-9-26,70.3,61.0,53.6,62.0,54.7,45.6,99,82,44,30.12,29.96,4,1,10,0.00
2013-9-27,67.3,56.0,47.3,55.1,50.7,47.0,99,84,54,30.12,29.98,97,2,11,0.00
2013-9-28,67.1,59.4,53.8,59.3,55.1,50.9,99,86,65,29.98,29.79,7,2,14,0.01
2013-9-29,67.6,59.9,57.4,55.6,54.0,52.5,92,81,62,29.80,29.76,8,3,16,0.00
2013-9-30,67.3,59.5,54.1,56.6,54.3,50.9,99,84,59,29.84,29.73,5,1,12,0.00
2013-10-1,64.2,58.0,51.8,58.1,53.6,51.5,99,86,73,29.88,29.81,4,1,8,0.00
2013-10-2,74.5,62.5,57.4,63.1,58.3,52.6,99,87,64,29.95,29.84,3,1,7,0.00
2013-10-3,66.4,61.5,55.0,64.8,60.8,54.8,99,98,90,29.93,29.76,4,1,10,0.06
2013-10-4,72.3,64.4,59.0,65.4,61.8,58.5,99,92,67,29.97,29.74,4,1,12,0.02
2013-10-5,69.4,60.1,53.6,60.4,57.4,53.3,99,92,69,30.28,29.97,2,0,4,0.00
2013-10-6,75.0,57.1,45.1,60.0,50.6,44.9,99,83,37,30.33,30.28,2,0,5,0.00
2013-10-7,72.1,59.4,50.0,60.9,55.3,49.7,99,88,55,30.32,29.92,2,0,5,0.00
2013-10-8,74.7,62.7,55.6,61.5,58.9,55.3,99,89,54,29.94,29.88,3,0,7,0.00
2013-10-9,65.8,57.0,46.8,61.1,51.2,38.5,99,82,59,29.90,29.65,4,1,11,0.00
2013-10-10,56.8,48.8,45.3,42.9,38.3,34.5,80,68,44,29.77,29.66,4,1,14,0.00
2013-10-11,56.8,52.2,46.8,54.9,49.8,39.4,99,92,70,29.77,29.60,6,2,15,0.39
2013-10-12,63.3,52.9,45.7,54.8,47.7,39.2,99,85,42,29.77,29.60,6,1,11,0.12
2013-10-13,53.2,49.6,47.1,53.0,49.3,46.9,99,99,96,29.93,29.44,3,0,6,0.39
2013-10-14,56.3,49.5,46.9,51.1,48.3,46.7,99,96,76,29.92,29.84,4,1,8,0.14
2013-10-15,60.6,49.5,43.9,50.9,47.5,43.6,99,93,68,30.09,29.88,3,0,7,0.00
2013-10-16,65.7,50.9,40.3,61.8,49.0,40.0,99,93,73,30.10,29.82,4,1,11,0.09
2013-10-17,68.7,58.2,51.3,58.0,54.5,51.0,99,88,63,30.14,29.95,4,1,9,0.01
2013-10-18,64.0,56.5,48.0,59.8,54.6,47.8,99,94,79,30.15,29.90,4,0,11,0.00
2013-10-19,66.4,59.5,54.1,62.6,58.1,53.9,99,95,78,29.90,29.77,4,1,11,0.02
2013-10-20,65.8,57.8,53.6,58.9,56.3,53.3,99,95,74,29.88,29.77,4,1,12,0.32
2013-10-21,66.2,60.7,56.5,61.2,58.3,55.9,99,92,76,29.89,29.74,5,1,14,0.04
2013-10-22,66.0,62.0,56.8,61.5,59.2,54.4,99,91,81,29.74,29.46,4,2,11,0.13
2013-10-23,65.5,58.5,48.9,59.2,53.6,45.6,99,85,55,29.99,29.38,6,2,20,0.18
2013-10-24,68.2,53.1,41.2,57.1,49.4,40.9,99,89,56,30.11,29.94,3,0,8,0.00
2013-10-25,67.1,60.9,56.8,62.3,57.3,54.5,99,88,75,29.94,29.72,5,2,14,0.07
2013-10-26,63.9,60.3,57.7,57.9,55.7,53.8,96,85,72,29.84,29.62,8,2,19,0.02
2013-10-27,64.0,57.3,53.2,58.0,51.4,46.0,99,82,54,29.63,29.36,8,2,18,0.07
2013-10-28,61.2,54.7,46.9,60.7,49.3,42.0,99,83,55,29.73,29.04,9,2,22,0.58
2013-10-29,58.3,48.6,43.0,44.6,41.3,35.3,92,77,42,30.20,29.73,4,1,10,0.00
2013-10-30,62.4,50.5,39.4,50.6,44.0,38.3,99,80,46,30.31,30.20,4,1,13,0.00
2013-10-31,56.7,54.6,52.5,55.5,52.7,50.0,99,93,80,30.20,30.07,4,1,10,0.14
2013-11-1,59.0,54.6,52.3,56.6,52.4,50.0,99,92,82,30.07,29.66,3,0,9,0.07
2013-11-2,61.3,53.3,49.6,53.4,47.2,38.6,99,81,59,29.71,29.53,6,2,15,0.02
2013-11-3,57.4,48.8,45.1,47.4,39.8,36.2,99,72,45,29.72,29.16,5,2,11,0.04
2013-11-4,54.1,46.5,41.4,47.8,39.1,33.9,99,77,48,30.22,29.13,4,1,14,0.20
2013-11-5,56.5,48.6,40.1,53.9,43.2,35.7,99,83,58,30.24,29.98,5,1,15,0.19
2013-11-6,60.4,54.6,48.9,58.7,51.9,42.9,99,91,78,30.28,30.20,5,1,14,0.05
2013-11-7,59.2,50.9,45.5,57.1,45.5,38.4,96,82,57,30.51,30.24,3,0,8,0.01
2013-11-8,59.2,46.7,42.3,50.7,44.3,39.7,99,92,66,30.50,30.30,3,0,6,0.22
2013-11-9,47.3,42.7,38.5,45.6,41.5,36.8,99,96,90,30.50,30.33,2,0,5,0.17
2013-11-10,54.5,42.9,35.8,43.3,37.6,30.9,99,84,43,31.00,30.34,3,0,8,0.01
2013-11-11,55.9,49.7,34.7,55.7,48.2,33.4,99,95,77,30.99,30.86,4,1,10,0.08
2013-11-12,60.6,50.4,38.3,55.7,48.4,38.0,99,93,61,31.25,30.87,2,0,5,0.05
2013-11-13,55.9,43.3,34.7,45.7,38.3,34.4,99,84,51,31.30,30.94,3,0,6,0.01
2013-11-14,52.7,46.3,39.0,45.0,38.3,34.0,89,74,50,31.14,30.84,4,1,14,0.00
2013-11-15,54.7,41.4,33.8,36.6,33.7,30.4,95,76,47,31.26,31.14,4,0,8,0.00
2013-11-16,53.8,41.2,30.4,46.4,38.0,29.9,99,89,58,31.25,31.10,2,0,5,0.00
2013-11-17,49.5,47.2,45.1,47.2,45.5,44.3,99,94,84,31.10,30.74,2,0,4,0.01
2013-11-18,50.0,47.2,43.9,49.7,46.4,41.4,99,97,89,30.74,30.48,2,0,4,0.04
2013-11-19,48.2,38.3,28.9,41.7,31.1,24.9,95,77,44,30.78,30.52,2,0,6,0.00
2013-11-20,45.7,37.9,28.0,42.3,33.8,25.2,96,85,68,30.76,30.12,5,1,11,0.17
2013-11-21,48.6,41.1,36.3,40.9,35.3,28.6,99,81,49,30.65,30.14,7,2,17,0.00
2013-11-22,50.2,41.0,36.1,37.3,33.8,30.1,93,77,50,30.88,30.64,4,0,10,0.00
2013-11-23,50.7,41.4,35.4,39.6,37.2,33.6,99,86,59,31.04,30.87,2,0,5,0.01
2013-11-24,48.7,43.8,39.4,42.4,37.5,31.5,87,79,57,31.29,31.03,3,0,8,0.00
2013-11-25,47.3,42.5,39.9,37.1,35.2,33.0,87,76,60,31.41,31.29,2,0,6,0.00
2013-11-26,49.6,41.9,33.8,36.1,32.3,29.0,87,69,51,31.44,31.31,3,0,4,0.00
2013-11-27,51.4,46.6,42.3,48.0,43.8,35.9,98,90,77,31.31,31.21,1,0,2,0.01
2013-11-28,51.3,48.5,35.8,46.9,45.5,32.6,95,89,79,31.30,31.25,9,0,14,0.00
2013-11-29,51.3,47.3,43.3,44.9,39.5,32.6,96,75,55,31.25,30.91,6,1,11,0.00
2013-11-30,53.6,43.5,35.8,37.4,34.0,31.1,89,69,52,31.20,30.91,3,0,7,0.00
2013-12-1,49.5,42.1,33.6,42.4,37.9,31.0,94,85,71,31.29,31.17,2,0,3,0.00
2013-12-2,50.4,45.0,40.5,46.4,40.3,36.2,99,84,63,31.30,31.17,2,0,4,0.00
2013-12-3,44.4,42.9,41.2,39.8,34.2,30.6,91,72,63,31.17,31.05,2,0,5,0.00
2013-12-4,48.6,41.9,34.5,43.3,34.6,29.0,91,76,53,31.23,31.02,2,0,5,0.00
2013-12-5,51.3,44.1,34.0,43.5,32.5,25.1,89,65,42,31.21,30.76,6,2,13,0.04
2013-12-6,49.1,42.4,33.8,40.5,31.7,27.2,86,66,47,31.11,30.97,4,1,11,0.00
2013-12-7,49.1,46.1,43.2,43.0,41.3,39.4,90,84,69,31.08,31.00,2,0,5,0.00
2013-12-8,56.3,47.6,41.2,43.9,41.3,37.7,90,79,59,31.05,30.98,3,1,10,0.00
2013-12-9,55.6,45.7,36.7,45.7,42.4,35.5,99,89,66,31.15,31.04,3,0,7,0.00
2013-12-10,52.3,41.3,32.7,49.2,39.0,31.7,99,92,73,31.19,31.13,2,0,4,0.01
2013-12-11,39.4,32.5,29.7,39.1,32.2,29.4,99,99,96,31.17,31.03,1,0,2,0.00
2013-12-12,50.0,42.4,30.9,48.6,41.6,30.7,99,97,90,31.04,30.92,4,0,7,0.01
2013-12-13,54.1,50.7,45.0,51.0,47.3,42.2,99,89,69,30.92,30.75,4,1,8,0.06
2013-12-14,53.8,47.3,39.4,48.5,41.3,35.4,92,80,61,31.03,30.79,6,2,60,0.05
2013-12-15,54.5,52.4,46.0,54.2,51.2,44.5,99,96,86,30.90,30.73,7,2,14,0.18
2013-12-16,55.0,52.3,45.0,53.9,51.0,44.7,99,95,84,30.85,30.68,7,2,14,0.33
2013-12-17,45.5,42.5,39.6,45.2,41.8,39.3,99,97,88,31.00,30.69,2,0,4,0.20
2013-12-18,50.7,47.3,41.0,48.9,44.9,40.7,99,92,79,30.71,30.03,9,2,17,0.31
2013-12-19,51.3,43.9,37.4,46.8,37.1,31.1,94,78,47,30.59,30.05,4,1,10,0.12
2013-12-20,52.2,48.1,37.4,43.3,38.8,34.8,95,71,56,30.62,29.85,7,2,16,0.00
2013-12-21,54.0,51.4,48.6,51.4,48.0,40.3,98,88,70,29.86,29.53,8,4,20,0.37
2013-12-22,53.1,46.9,40.8,43.2,37.0,30.6,83,69,49,29.73,29.53,6,2,14,0.00
2013-12-23,53.2,48.9,41.4,50.8,44.1,33.0,95,83,71,29.73,28.69,10,4,24,1.03
2013-12-24,52.9,46.8,41.5,50.9,41.7,35.3,96,83,67,28.80,28.61,11,2,23,0.74
2013-12-25,47.5,40.4,36.7,39.8,37.0,33.5,99,88,72,29.92,28.73,2,0,7,0.11
2013-12-26,46.8,39.3,35.4,44.0,38.2,34.8,99,96,63,30.25,29.91,8,1,21,0.01
2013-12-27,52.5,48.9,44.4,51.5,40.1,32.2,98,72,58,30.01,29.76,10,3,21,0.17
2013-12-28,48.4,40.3,33.3,35.3,32.5,27.8,93,74,57,30.46,30.01,7,0,6,0.00
2013-12-29,50.0,39.9,32.9,40.1,34.7,31.5,99,83,54,30.84,30.46,3,1,8,0.01
2013-12-30,52.3,48.0,43.2,47.1,42.8,38.4,92,82,66,30.76,30.42,10,3,100,0.25
2013-12-31,51.6,46.6,42.1,47.4,42.3,32.5,96,85,65,30.60,30.29,6,2,14,0.22
2014-1-1,52.3,48.1,42.8,49.1,44.8,38.0,96,88,79,30.34,29.79,11,3,19,0.61
2014-1-2,53.4,49.1,43.2,48.1,42.3,38.2,92,78,58,30.05,29.82,7,2,15,0.27